,,PA_Meas_PMT16A,,PR_Meas_QMR101_102,,RH_Meas_QMH101,,SR_Meas_QMS101,,TA_Meas_QMH101,,GenWind,,GenWind,
time,status,PA,status,PR,status,RH,status,SR,status,TA,status,DirAvg,status,SpdAvg,
2012-05-25, 00:00:04,VALID,916.624,VALID,0,VALID,86.9527,VALID,0,VALID,21.0454,VALID,127,VALID,0.809375,
2012-05-25, 00:01:04,VALID,916.602,VALID,0,VALID,86.8078,VALID,0,VALID,21.0064,VALID,95,VALID,1.10938,
2012-05-25, 00:02:04,VALID,916.586,VALID,0,VALID,86.5715,VALID,0,VALID,21.0064,VALID,86,VALID,0.965234,
2012-05-25, 00:03:04,VALID,916.535,VALID,0,VALID,86.419,VALID,0.107441,VALID,20.9869,VALID,86,VALID,1.04609,
2012-05-25, 00:04:04,VALID,916.587,VALID,0,VALID,86.2285,VALID,0.107441,VALID,21.0064,VALID,87,VALID,0.867578,
2012-05-25, 00:05:04,VALID,916.604,VALID,0,VALID,86.137,VALID,0.107441,VALID,21.0064,VALID,87,VALID,0.687109,
2012-05-25, 00:06:04,VALID,916.598,VALID,0,VALID,86.0074,VALID,0,VALID,21.0275,VALID,87,VALID,0.986719,
2012-05-25, 00:07:04,VALID,916.605,VALID,0,VALID,85.8549,VALID,0.107441,VALID,21.0454,VALID,87,VALID,1.10781,
2012-05-25, 00:08:04,VALID,916.593,VALID,0,VALID,85.7024,VALID,0.107441,VALID,21.0633,VALID,87,VALID,1.09219,
2012-05-25, 00:09:04,VALID,916.575,VALID,0,VALID,85.4737,VALID,0.107441,VALID,21.1055,VALID,87,VALID,1.03984,
2012-05-25, 00:10:04,VALID,916.585,VALID,0,VALID,85.55,VALID,0,VALID,21.0844,VALID,87,VALID,0.93125,
2012-05-25, 00:11:04,VALID,916.606,VALID,0,VALID,85.7329,VALID,0,VALID,21.0649,VALID,87,VALID,1.11094,
2012-05-25, 00:12:04,VALID,916.622,VALID,0,VALID,85.5195,VALID,0.107441,VALID,21.0454,VALID,87,VALID,0.978906,
2012-05-25, 00:13:04,VALID,916.663,VALID,0,VALID,85.0849,VALID,0,VALID,21.1055,VALID,87,VALID,0.792969,
2012-05-25, 00:14:04,VALID,916.705,VALID,0,VALID,84.5284,VALID,0,VALID,21.1624,VALID,87,VALID,0.540234,
2012-05-25, 00:15:04,VALID,916.687,VALID,0,VALID,84.0482,VALID,0,VALID,21.2616,VALID,86,VALID,0.588281,
2012-05-25, 00:16:04,VALID,916.623,VALID,0,VALID,83.6212,VALID,0,VALID,21.3185,VALID,87,VALID,0.646484,
2012-05-25, 00:17:04,VALID,916.605,VALID,0,VALID,83.3316,VALID,0.107441,VALID,21.377,VALID,87,VALID,0.817578,
2012-05-25, 00:18:04,VALID,916.625,VALID,0,VALID,83.2629,VALID,0,VALID,21.3949,VALID,87,VALID,0.587109,
2012-05-25, 00:19:04,VALID,916.654,VALID,0,VALID,83.2325,VALID,0,VALID,21.416,VALID,87,VALID,0.457031,
2012-05-25, 00:20:04,VALID,916.666,VALID,0,VALID,83.1791,VALID,0,VALID,21.4177,VALID,87,VALID,0.43125,
2012-05-25, 00:21:04,VALID,916.667,VALID,0,VALID,84.3074,VALID,0,VALID,21.3981,VALID,87,VALID,0,
2012-05-25, 00:22:04,VALID,916.622,VALID,0,VALID,84.7724,VALID,0.107441,VALID,21.2795,VALID,87,VALID,0.623828,
2012-05-25, 00:23:04,VALID,916.663,VALID,0,VALID,85.1383,VALID,0,VALID,21.1039,VALID,87,VALID,0.892969,
2012-05-25, 00:24:04,VALID,916.694,VALID,0,VALID,85.5728,VALID,0,VALID,21.0064,VALID,87,VALID,0.727344,
2012-05-25, 00:25:04,VALID,916.744,VALID,0,VALID,85.7329,VALID,0.107441,VALID,20.9674,VALID,87,VALID,0.671484,
2012-05-25, 00:26:04,VALID,916.724,VALID,0,VALID,87.0289,VALID,0,VALID,20.969,VALID,87,VALID,0.764844,
2012-05-25, 00:27:04,VALID,916.715,VALID,0,VALID,87.7913,VALID,0,VALID,20.8714,VALID,87,VALID,0.446875,
2012-05-25, 00:28:04,VALID,916.671,VALID,0,VALID,88.3325,VALID,0,VALID,20.8129,VALID,86,VALID,0.217969,
2012-05-25, 00:29:04,VALID,916.679,VALID,0,VALID,88.5917,VALID,0,VALID,20.7755,VALID,87,VALID,0,
2012-05-25, 00:30:04,VALID,916.692,VALID,0,VALID,88.7366,VALID,0,VALID,20.795,VALID,86,VALID,0,
2012-05-25, 00:31:04,VALID,916.694,VALID,0,VALID,88.5384,VALID,0,VALID,20.7755,VALID,87,VALID,0,
2012-05-25, 00:32:04,VALID,916.652,VALID,0,VALID,88.0505,VALID,0,VALID,20.756,VALID,86,VALID,0.340234,
2012-05-25, 00:33:04,VALID,916.694,VALID,0,VALID,88.2105,VALID,0,VALID,20.6569,VALID,87,VALID,0,
2012-05-25, 00:34:04,VALID,916.669,VALID,0,VALID,88.5536,VALID,0,VALID,20.5789,VALID,87,VALID,0.307422,
2012-05-25, 00:35:04,VALID,916.647,VALID,0,VALID,88.7747,VALID,0,VALID,20.5789,VALID,87,VALID,0.493359,
2012-05-25, 00:36:04,VALID,916.69,VALID,0,VALID,88.2563,VALID,0,VALID,20.5789,VALID,87,VALID,0.46875,
2012-05-25, 00:37:04,VALID,916.714,VALID,0,VALID,88.1877,VALID,0,VALID,20.6163,VALID,87,VALID,0.258594,
2012-05-25, 00:38:04,VALID,916.746,VALID,0,VALID,88.3173,VALID,0,VALID,20.6569,VALID,87,VALID,0,
2012-05-25, 00:39:04,VALID,916.743,VALID,0,VALID,88.2715,VALID,0,VALID,20.6764,VALID,87,VALID,0,
2012-05-25, 00:40:04,VALID,916.745,VALID,0,VALID,88.3401,VALID,0,VALID,20.6764,VALID,87,VALID,0,
2012-05-25, 00:41:04,VALID,916.741,VALID,0,VALID,88.4469,VALID,0,VALID,20.6959,VALID,87,VALID,0,
2012-05-25, 00:42:04,VALID,916.722,VALID,0,VALID,88.1572,VALID,0.107441,VALID,20.6943,VALID,87,VALID,0,
2012-05-25, 00:43:04,VALID,916.688,VALID,0,VALID,88.3097,VALID,0,VALID,20.7154,VALID,87,VALID,0,
2012-05-25, 00:44:04,VALID,916.679,VALID,0,VALID,88.6832,VALID,0,VALID,20.6943,VALID,87,VALID,0,
2012-05-25, 00:45:04,VALID,916.652,VALID,0,VALID,88.1877,VALID,0,VALID,20.6959,VALID,87,VALID,0,
2012-05-25, 00:46:04,VALID,916.622,VALID,0,VALID,87.9056,VALID,0,VALID,20.6764,VALID,87,VALID,0,
2012-05-25, 00:47:04,VALID,916.647,VALID,0,VALID,88.3706,VALID,0,VALID,20.6959,VALID,87,VALID,0,
2012-05-25, 00:48:04,VALID,916.611,VALID,0,VALID,88.3249,VALID,0,VALID,20.6358,VALID,87,VALID,0,
2012-05-25, 00:49:04,VALID,916.601,VALID,0,VALID,88.0657,VALID,0,VALID,20.6374,VALID,87,VALID,0.00195313,
2012-05-25, 00:50:04,VALID,916.579,VALID,0,VALID,88.2334,VALID,0,VALID,20.6179,VALID,87,VALID,0.0207031,
2012-05-25, 00:51:04,VALID,916.554,VALID,0,VALID,88.0047,VALID,0,VALID,20.5984,VALID,87,VALID,0.143359,
2012-05-25, 00:52:04,VALID,916.572,VALID,0,VALID,88.3554,VALID,0,VALID,20.5968,VALID,87,VALID,0,
2012-05-25, 00:53:04,VALID,916.555,VALID,0,VALID,88.0047,VALID,0,VALID,20.5968,VALID,87,VALID,0,
2012-05-25, 00:54:04,VALID,916.557,VALID,0,VALID,88.0123,VALID,0,VALID,20.5773,VALID,87,VALID,0,
2012-05-25, 00:55:04,VALID,916.553,VALID,0,VALID,88.2944,VALID,0,VALID,20.5968,VALID,87,VALID,0,
2012-05-25, 00:56:04,VALID,916.545,VALID,0,VALID,88.8204,VALID,0,VALID,20.5773,VALID,87,VALID,0,
2012-05-25, 00:57:04,VALID,916.533,VALID,0,VALID,88.4088,VALID,0.107441,VALID,20.5773,VALID,87,VALID,0,
2012-05-25, 00:58:04,VALID,916.527,VALID,0,VALID,88.7366,VALID,0,VALID,20.5789,VALID,87,VALID,0,
2012-05-25, 00:59:04,VALID,916.503,VALID,0,VALID,88.9576,VALID,0,VALID,20.5383,VALID,87,VALID,0,
2012-05-25, 01:00:04,VALID,916.498,VALID,0,VALID,88.9958,VALID,0,VALID,20.5188,VALID,87,VALID,0,
2012-05-25, 01:01:04,VALID,916.522,VALID,0,VALID,89.0491,VALID,0.107441,VALID,20.5188,VALID,87,VALID,0,
2012-05-25, 01:02:04,VALID,916.57,VALID,0,VALID,89.0567,VALID,0,VALID,20.5594,VALID,87,VALID,0,
2012-05-25, 01:03:04,VALID,916.525,VALID,0,VALID,88.95,VALID,0.107441,VALID,20.5789,VALID,87,VALID,0,
2012-05-25, 01:04:04,VALID,916.536,VALID,0,VALID,89.2931,VALID,0,VALID,20.5773,VALID,87,VALID,0,
2012-05-25, 01:05:04,VALID,916.532,VALID,0,VALID,89.5142,VALID,0,VALID,20.5773,VALID,87,VALID,0,
2012-05-25, 01:06:04,VALID,916.488,VALID,0,VALID,89.2702,VALID,0.107441,VALID,20.5773,VALID,87,VALID,0,
2012-05-25, 01:07:04,VALID,916.497,VALID,0,VALID,89.2168,VALID,0.107441,VALID,20.5773,VALID,87,VALID,0,
2012-05-25, 01:08:04,VALID,916.49,VALID,0,VALID,89.1025,VALID,0.107441,VALID,20.5383,VALID,87,VALID,0,
2012-05-25, 01:09:04,VALID,916.483,VALID,0,VALID,89.133,VALID,0.107441,VALID,20.5188,VALID,87,VALID,0,
2012-05-25, 01:10:04,VALID,916.483,VALID,0,VALID,89.1177,VALID,0,VALID,20.5188,VALID,87,VALID,0,
2012-05-25, 01:11:04,VALID,916.469,VALID,0,VALID,89.3007,VALID,0,VALID,20.5219,VALID,87,VALID,0,
2012-05-25, 01:12:04,VALID,916.432,VALID,0,VALID,89.2854,VALID,0,VALID,20.4798,VALID,87,VALID,0,
2012-05-25, 01:13:04,VALID,916.449,VALID,0,VALID,89.3236,VALID,0,VALID,20.4993,VALID,87,VALID,0,
2012-05-25, 01:14:04,VALID,916.454,VALID,0,VALID,89.4455,VALID,0,VALID,20.5204,VALID,87,VALID,0,
2012-05-25, 01:15:04,VALID,916.476,VALID,0,VALID,89.5446,VALID,0,VALID,20.5204,VALID,86,VALID,0,
2012-05-25, 01:16:04,VALID,916.475,VALID,0,VALID,89.6361,VALID,0,VALID,20.5204,VALID,87,VALID,0,
2012-05-25, 01:17:04,VALID,916.452,VALID,0,VALID,89.659,VALID,0,VALID,20.5204,VALID,86,VALID,0,
2012-05-25, 01:18:04,VALID,916.508,VALID,0,VALID,89.2321,VALID,0,VALID,20.5204,VALID,87,VALID,0,
2012-05-25, 01:19:04,VALID,916.543,VALID,0,VALID,89.3007,VALID,0,VALID,20.5399,VALID,87,VALID,0,
2012-05-25, 01:20:04,VALID,916.494,VALID,0,VALID,89.2397,VALID,0,VALID,20.5009,VALID,87,VALID,0,
2012-05-25, 01:21:04,VALID,916.472,VALID,0,VALID,88.9958,VALID,0,VALID,20.4618,VALID,86,VALID,0,
2012-05-25, 01:22:04,VALID,916.435,VALID,0,VALID,88.8509,VALID,0,VALID,20.4423,VALID,87,VALID,0,
2012-05-25, 01:23:04,VALID,916.427,VALID,0,VALID,89.1406,VALID,0,VALID,20.4423,VALID,87,VALID,0,
2012-05-25, 01:24:04,VALID,916.432,VALID,0,VALID,89.2702,VALID,0,VALID,20.4423,VALID,87,VALID,0,
2012-05-25, 01:25:04,VALID,916.414,VALID,0,VALID,89.1406,VALID,0,VALID,20.4423,VALID,87,VALID,0,
2012-05-25, 01:26:04,VALID,916.366,VALID,0,VALID,89.6285,VALID,0,VALID,20.4603,VALID,87,VALID,0,
2012-05-25, 01:27:04,VALID,916.364,VALID,0,VALID,89.8115,VALID,0,VALID,20.4213,VALID,87,VALID,0,
2012-05-25, 01:28:04,VALID,916.324,VALID,0,VALID,89.9716,VALID,0,VALID,20.4213,VALID,87,VALID,0,
2012-05-25, 01:29:04,VALID,916.313,VALID,0,VALID,89.9258,VALID,0,VALID,20.4213,VALID,87,VALID,0,
2012-05-25, 01:30:04,VALID,916.302,VALID,0,VALID,89.9411,VALID,0.107441,VALID,20.4213,VALID,87,VALID,0,
2012-05-25, 01:31:04,VALID,916.264,VALID,0,VALID,90.1316,VALID,0,VALID,20.4213,VALID,87,VALID,0,
2012-05-25, 01:32:04,VALID,916.277,VALID,0,VALID,90.2384,VALID,0,VALID,20.4213,VALID,87,VALID,0,
2012-05-25, 01:33:04,VALID,916.269,VALID,0,VALID,90.1545,VALID,0.107441,VALID,20.4018,VALID,87,VALID,0,
2012-05-25, 01:34:04,VALID,916.282,VALID,0,VALID,90.1088,VALID,0.107441,VALID,20.3433,VALID,87,VALID,0,
2012-05-25, 01:35:04,VALID,916.274,VALID,0,VALID,90.2994,VALID,0.107441,VALID,20.2848,VALID,87,VALID,0,
2012-05-25, 01:36:04,VALID,916.279,VALID,0,VALID,90.4747,VALID,0,VALID,20.2068,VALID,87,VALID,0.146484,
2012-05-25, 01:37:04,VALID,916.218,VALID,0,VALID,90.7339,VALID,0.107441,VALID,20.1483,VALID,87,VALID,0.56875,
2012-05-25, 01:38:04,VALID,916.203,VALID,0,VALID,90.7873,VALID,0,VALID,20.1288,VALID,87,VALID,0.494531,
2012-05-25, 01:39:04,VALID,916.187,VALID,0,VALID,90.7339,VALID,0.107441,VALID,20.1873,VALID,87,VALID,0.616016,
2012-05-25, 01:40:04,VALID,916.152,VALID,0,VALID,90.6577,VALID,0,VALID,20.2068,VALID,87,VALID,0.722266,
2012-05-25, 01:41:04,VALID,916.181,VALID,0,VALID,90.5891,VALID,0,VALID,20.2473,VALID,87,VALID,0.613672,
2012-05-25, 01:42:04,VALID,916.171,VALID,0,VALID,90.5509,VALID,0,VALID,20.2473,VALID,87,VALID,0.521484,
2012-05-25, 01:43:04,VALID,916.168,VALID,0,VALID,90.6348,VALID,0,VALID,20.2278,VALID,87,VALID,0.383203,
2012-05-25, 01:44:04,VALID,916.192,VALID,0,VALID,90.8025,VALID,0,VALID,20.2278,VALID,87,VALID,0.590625,
2012-05-25, 01:45:04,VALID,916.169,VALID,0,VALID,90.894,VALID,0,VALID,20.2068,VALID,87,VALID,0.784766,
2012-05-25, 01:46:04,VALID,916.209,VALID,0,VALID,90.9778,VALID,0,VALID,20.2278,VALID,87,VALID,0.779297,
2012-05-25, 01:47:04,VALID,916.213,VALID,0,VALID,91.0541,VALID,0,VALID,20.1873,VALID,103,VALID,0.837891,
2012-05-25, 01:48:04,VALID,916.214,VALID,0,VALID,91.2294,VALID,0,VALID,20.1498,VALID,103,VALID,0.820313,
2012-05-25, 01:49:04,VALID,916.246,VALID,0,VALID,91.542,VALID,0,VALID,20.1093,VALID,117,VALID,0.866797,
2012-05-25, 01:50:04,VALID,916.239,VALID,0,VALID,91.8393,VALID,0,VALID,20.0718,VALID,117,VALID,0.705078,
2012-05-25, 01:51:04,VALID,916.24,VALID,0,VALID,92.2738,VALID,0,VALID,20.0718,VALID,118,VALID,0.238672,
2012-05-25, 01:52:04,VALID,916.24,VALID,0,VALID,92.8075,VALID,0,VALID,20.0328,VALID,131,VALID,0.688672,
2012-05-25, 01:53:04,VALID,916.267,VALID,0,VALID,93.1353,VALID,0,VALID,19.9923,VALID,131,VALID,0.765234,
2012-05-25, 01:54:04,VALID,916.267,VALID,0,VALID,93.6384,VALID,0,VALID,19.9548,VALID,132,VALID,0.796875,
2012-05-25, 01:55:04,VALID,916.269,VALID,0,VALID,94.012,VALID,0,VALID,19.9353,VALID,144,VALID,0.926562,
2012-05-25, 01:56:04,VALID,916.301,VALID,0,VALID,94.2788,VALID,0,VALID,19.8768,VALID,143,VALID,0.832031,
2012-05-25, 01:57:04,VALID,916.266,VALID,0,VALID,94.5837,VALID,0,VALID,19.8573,VALID,143,VALID,0.724609,
2012-05-25, 01:58:04,VALID,916.253,VALID,0,VALID,94.7972,VALID,0,VALID,19.8378,VALID,143,VALID,0.944141,
2012-05-25, 01:59:04,VALID,916.282,VALID,0,VALID,94.9801,VALID,0,VALID,19.8378,VALID,143,VALID,0.823047,
2012-05-25, 02:00:04,VALID,916.283,VALID,0,VALID,95.0945,VALID,0,VALID,19.8183,VALID,143,VALID,0.737109,
2012-05-25, 02:01:04,VALID,916.317,VALID,0,VALID,95.1783,VALID,0,VALID,19.8183,VALID,143,VALID,0.309375,
2012-05-25, 02:02:04,VALID,916.323,VALID,0,VALID,95.2241,VALID,0,VALID,19.8588,VALID,143,VALID,0.591016,
2012-05-25, 02:03:04,VALID,916.365,VALID,0,VALID,95.2393,VALID,0,VALID,19.8378,VALID,143,VALID,0.947656,
2012-05-25, 02:04:04,VALID,916.344,VALID,0,VALID,95.186,VALID,0,VALID,19.8573,VALID,143,VALID,0.932031,
2012-05-25, 02:05:04,VALID,916.318,VALID,0,VALID,95.1097,VALID,0,VALID,19.8573,VALID,136,VALID,1.04844,
2012-05-25, 02:06:04,VALID,916.307,VALID,0,VALID,95.064,VALID,0,VALID,19.8768,VALID,128,VALID,0.864062,
2012-05-25, 02:07:04,VALID,916.241,VALID,0,VALID,94.9954,VALID,0,VALID,19.8768,VALID,128,VALID,1.01875,
2012-05-25, 02:08:04,VALID,916.22,VALID,0,VALID,94.9344,VALID,0,VALID,19.8768,VALID,131,VALID,0.726563,
2012-05-25, 02:09:04,VALID,916.193,VALID,0,VALID,94.8963,VALID,0,VALID,19.8768,VALID,137,VALID,0.447266,
2012-05-25, 02:10:04,VALID,916.227,VALID,0,VALID,94.82,VALID,0,VALID,19.8963,VALID,137,VALID,0.63125,
2012-05-25, 02:11:04,VALID,916.175,VALID,0,VALID,94.7057,VALID,0,VALID,19.8963,VALID,138,VALID,0.863281,
2012-05-25, 02:12:04,VALID,916.182,VALID,0,VALID,94.6295,VALID,0,VALID,19.8963,VALID,138,VALID,0.0121094,
2012-05-25, 02:13:04,VALID,916.208,VALID,0,VALID,94.5609,VALID,0,VALID,19.9158,VALID,138,VALID,0,
2012-05-25, 02:14:04,VALID,916.195,VALID,0,VALID,94.4922,VALID,0,VALID,19.9353,VALID,138,VALID,0,
2012-05-25, 02:15:04,VALID,916.149,VALID,0,VALID,94.3855,VALID,0,VALID,19.9548,VALID,138,VALID,0,
2012-05-25, 02:16:04,VALID,916.194,VALID,0,VALID,94.3321,VALID,0,VALID,19.9548,VALID,138,VALID,0.046875,
2012-05-25, 02:17:04,VALID,916.188,VALID,0,VALID,94.2483,VALID,0,VALID,19.9953,VALID,138,VALID,0,
2012-05-25, 02:18:04,VALID,916.185,VALID,0,VALID,94.0348,VALID,0,VALID,20.0148,VALID,138,VALID,0,
2012-05-25, 02:19:05,VALID,916.184,VALID,0,VALID,93.8976,VALID,0,VALID,20.0133,VALID,138,VALID,0,
2012-05-25, 02:20:05,VALID,916.183,VALID,0,VALID,93.6155,VALID,0,VALID,20.0343,VALID,138,VALID,0,
2012-05-25, 02:21:05,VALID,916.216,VALID,0,VALID,93.4173,VALID,0,VALID,20.0343,VALID,138,VALID,0,
2012-05-25, 02:22:05,VALID,916.165,VALID,0,VALID,93.364,VALID,0,VALID,20.0343,VALID,138,VALID,0,
2012-05-25, 02:23:05,VALID,916.156,VALID,0,VALID,93.3411,VALID,0,VALID,20.0523,VALID,138,VALID,0,
2012-05-25, 02:24:05,VALID,916.139,VALID,0,VALID,93.2954,VALID,0,VALID,20.0523,VALID,138,VALID,0,
2012-05-25, 02:25:05,VALID,916.132,VALID,0,VALID,93.1734,VALID,0,VALID,20.0928,VALID,138,VALID,0.0480469,
2012-05-25, 02:26:05,VALID,916.108,VALID,0,VALID,93.0895,VALID,0.107441,VALID,20.0898,VALID,138,VALID,0,
2012-05-25, 02:27:05,VALID,916.078,VALID,0,VALID,92.8761,VALID,0.107441,VALID,20.1108,VALID,138,VALID,0,
2012-05-25, 02:28:05,VALID,916.064,VALID,0,VALID,92.5559,VALID,0,VALID,20.1108,VALID,138,VALID,0.189063,
2012-05-25, 02:29:05,VALID,916.043,VALID,0,VALID,92.3424,VALID,0,VALID,20.1093,VALID,138,VALID,0,
2012-05-25, 02:30:05,VALID,916.049,VALID,0,VALID,92.0832,VALID,0,VALID,20.1498,VALID,138,VALID,0,
2012-05-25, 02:31:05,VALID,916.022,VALID,0,VALID,92.2281,VALID,0,VALID,20.1288,VALID,138,VALID,0,
2012-05-25, 02:32:05,VALID,916.01,VALID,0,VALID,92.2967,VALID,0.107441,VALID,20.1483,VALID,138,VALID,0,
2012-05-25, 02:33:05,VALID,915.994,VALID,0,VALID,92.2128,VALID,0.107441,VALID,20.1888,VALID,138,VALID,0,
2012-05-25, 02:34:05,VALID,915.967,VALID,0,VALID,92.0451,VALID,0.107441,VALID,20.1693,VALID,138,VALID,0,
2012-05-25, 02:35:05,VALID,915.961,VALID,0,VALID,91.9613,VALID,0,VALID,20.1498,VALID,138,VALID,0,
2012-05-25, 02:36:05,VALID,915.953,VALID,0,VALID,91.9994,VALID,0,VALID,20.1093,VALID,138,VALID,0,
2012-05-25, 02:37:05,VALID,915.928,VALID,0,VALID,91.9994,VALID,0.107441,VALID,20.1288,VALID,138,VALID,0,
2012-05-25, 02:38:05,VALID,915.917,VALID,0,VALID,92.0832,VALID,0,VALID,20.1288,VALID,138,VALID,0,
2012-05-25, 02:39:05,VALID,915.874,VALID,0,VALID,92.1214,VALID,0,VALID,20.1498,VALID,138,VALID,0,
2012-05-25, 02:40:05,VALID,915.878,VALID,0,VALID,91.9384,VALID,0,VALID,20.1303,VALID,138,VALID,0.535547,
2012-05-25, 02:41:05,VALID,915.861,VALID,0,VALID,91.8927,VALID,0,VALID,20.0928,VALID,138,VALID,0.998438,
2012-05-25, 02:42:05,VALID,915.831,VALID,0,VALID,91.9231,VALID,0,VALID,19.9938,VALID,138,VALID,0.877734,
2012-05-25, 02:43:05,VALID,915.841,VALID,0,VALID,92.0451,VALID,0,VALID,19.9548,VALID,138,VALID,0.770703,
2012-05-25, 02:44:05,VALID,915.804,VALID,0,VALID,92.1137,VALID,0,VALID,19.9368,VALID,138,VALID,0.889844,
2012-05-25, 02:45:05,VALID,915.805,VALID,0,VALID,92.2662,VALID,0,VALID,19.8573,VALID,138,VALID,0.80625,
2012-05-25, 02:46:05,VALID,915.798,VALID,0,VALID,92.5635,VALID,0,VALID,19.8198,VALID,138,VALID,0.801562,
2012-05-25, 02:47:05,VALID,915.818,VALID,0,VALID,92.8532,VALID,0,VALID,19.7808,VALID,138,VALID,0.866797,
2012-05-25, 02:48:05,VALID,915.783,VALID,0,VALID,93.0285,VALID,0,VALID,19.7808,VALID,118,VALID,0.880078,
2012-05-25, 02:49:05,VALID,915.766,VALID,0,VALID,93.1658,VALID,0,VALID,19.7808,VALID,118,VALID,0.991406,
2012-05-25, 02:50:05,VALID,915.736,VALID,0,VALID,93.1658,VALID,0,VALID,19.7988,VALID,118,VALID,0.691797,
2012-05-25, 02:51:05,VALID,915.74,VALID,0,VALID,93.1429,VALID,0,VALID,19.8198,VALID,118,VALID,0.773047,
2012-05-25, 02:52:05,VALID,915.737,VALID,0,VALID,93.2344,VALID,0,VALID,19.8198,VALID,118,VALID,0.814062,
2012-05-25, 02:53:05,VALID,915.726,VALID,0,VALID,93.2268,VALID,0,VALID,19.8198,VALID,118,VALID,0.75,
2012-05-25, 02:54:05,VALID,915.725,VALID,0,VALID,93.303,VALID,0,VALID,19.8393,VALID,118,VALID,0.697266,
2012-05-25, 02:55:05,VALID,915.765,VALID,0,VALID,93.3487,VALID,0,VALID,19.8378,VALID,118,VALID,0.438672,
2012-05-25, 02:56:05,VALID,915.773,VALID,0,VALID,93.364,VALID,0,VALID,19.8378,VALID,118,VALID,0.065625,
2012-05-25, 02:57:05,VALID,915.752,VALID,0,VALID,93.3792,VALID,0,VALID,19.8573,VALID,118,VALID,0.849219,
2012-05-25, 02:58:05,VALID,915.704,VALID,0,VALID,93.5851,VALID,0,VALID,19.8393,VALID,145,VALID,1.01406,
2012-05-25, 02:59:05,VALID,915.713,VALID,0,VALID,93.7223,VALID,0,VALID,19.8393,VALID,145,VALID,0.884375,
2012-05-25, 03:00:05,VALID,915.665,VALID,0,VALID,93.8214,VALID,0,VALID,19.8183,VALID,145,VALID,0.763281,
2012-05-25, 03:01:05,VALID,915.666,VALID,0,VALID,93.9052,VALID,0,VALID,19.8393,VALID,145,VALID,0.591406,
2012-05-25, 03:02:05,VALID,915.641,VALID,0,VALID,93.8747,VALID,0,VALID,19.8393,VALID,145,VALID,0.575781,
2012-05-25, 03:03:05,VALID,915.645,VALID,0,VALID,93.951,VALID,0,VALID,19.8198,VALID,145,VALID,0.789453,
2012-05-25, 03:04:05,VALID,915.64,VALID,0,VALID,94.0272,VALID,0,VALID,19.8003,VALID,145,VALID,0.663672,
2012-05-25, 03:05:05,VALID,915.636,VALID,0,VALID,94.1263,VALID,0,VALID,19.7808,VALID,145,VALID,0.625781,
2012-05-25, 03:06:05,VALID,915.648,VALID,0,VALID,94.233,VALID,0,VALID,19.7598,VALID,145,VALID,0.621484,
2012-05-25, 03:07:05,VALID,915.626,VALID,0,VALID,94.2407,VALID,0,VALID,19.7403,VALID,145,VALID,0.476172,
2012-05-25, 03:08:05,VALID,915.626,VALID,0,VALID,94.2102,VALID,0,VALID,19.7418,VALID,145,VALID,0.333203,
2012-05-25, 03:09:05,VALID,915.595,VALID,0,VALID,94.1949,VALID,0,VALID,19.7208,VALID,145,VALID,0.578125,
2012-05-25, 03:10:05,VALID,915.582,VALID,0,VALID,94.1111,VALID,0,VALID,19.7418,VALID,145,VALID,0.79375,
2012-05-25, 03:11:05,VALID,915.552,VALID,0,VALID,93.9129,VALID,0,VALID,19.7988,VALID,145,VALID,0.74375,
2012-05-25, 03:12:05,VALID,915.536,VALID,0,VALID,93.6079,VALID,0.107441,VALID,19.8183,VALID,145,VALID,0.889453,
2012-05-25, 03:13:05,VALID,915.49,VALID,0,VALID,93.1886,VALID,0,VALID,19.8573,VALID,145,VALID,0.918359,
2012-05-25, 03:14:05,VALID,915.463,VALID,0,VALID,92.7312,VALID,0.107441,VALID,19.8948,VALID,130,VALID,1.25,
2012-05-25, 03:15:05,VALID,915.421,VALID,0,VALID,92.3424,VALID,0,VALID,19.9743,VALID,112,VALID,1.06484,
2012-05-25, 03:16:05,VALID,915.429,VALID,0,VALID,92.1366,VALID,0,VALID,19.9743,VALID,112,VALID,0.835156,
2012-05-25, 03:17:05,VALID,915.458,VALID,0,VALID,91.9689,VALID,0.107441,VALID,19.9938,VALID,112,VALID,0.844922,
2012-05-25, 03:18:05,VALID,915.447,VALID,0,VALID,91.9613,VALID,0,VALID,19.9743,VALID,112,VALID,0.8125,
2012-05-25, 03:19:05,VALID,915.463,VALID,0,VALID,92.0909,VALID,0,VALID,19.9533,VALID,112,VALID,0.968359,
2012-05-25, 03:20:05,VALID,915.427,VALID,0,VALID,92.4034,VALID,0.107441,VALID,19.9353,VALID,136,VALID,1.30547,
2012-05-25, 03:21:05,VALID,915.388,VALID,0,VALID,92.8303,VALID,0.107441,VALID,19.8558,VALID,138,VALID,1.48438,
2012-05-25, 03:22:05,VALID,915.343,VALID,0,VALID,93.2115,VALID,0.107441,VALID,19.7778,VALID,127,VALID,1.37773,
2012-05-25, 03:23:05,VALID,915.336,VALID,0,VALID,93.6537,VALID,0,VALID,19.7403,VALID,128,VALID,1.61484,
2012-05-25, 03:24:05,VALID,915.328,VALID,0,VALID,94.0958,VALID,0.107441,VALID,19.6218,VALID,119,VALID,1.53672,
2012-05-25, 03:25:05,VALID,915.317,VALID,0,VALID,94.5532,VALID,0,VALID,19.5648,VALID,122,VALID,1.61328,
2012-05-25, 03:26:05,VALID,915.338,VALID,0,VALID,94.8963,VALID,0,VALID,19.5063,VALID,128,VALID,1.20898,
2012-05-25, 03:27:05,VALID,915.366,VALID,0,VALID,95.1479,VALID,0,VALID,19.4688,VALID,128,VALID,0.848437,
2012-05-25, 03:28:05,VALID,915.363,VALID,0,VALID,95.3689,VALID,0,VALID,19.4478,VALID,136,VALID,0.728125,
2012-05-25, 03:29:05,VALID,915.364,VALID,0,VALID,95.5138,VALID,0,VALID,19.4688,VALID,142,VALID,0.821094,
2012-05-25, 03:30:05,VALID,915.362,VALID,0,VALID,95.59,VALID,0,VALID,19.4493,VALID,135,VALID,0.727734,
2012-05-25, 03:31:05,VALID,915.348,VALID,0,VALID,95.6739,VALID,0,VALID,19.4493,VALID,133,VALID,0.714453,
2012-05-25, 03:32:05,VALID,915.368,VALID,0,VALID,95.6662,VALID,0,VALID,19.4493,VALID,132,VALID,1.30313,
2012-05-25, 03:33:05,VALID,915.385,VALID,0,VALID,95.6739,VALID,0,VALID,19.4688,VALID,129,VALID,1.28477,
2012-05-25, 03:34:05,VALID,915.401,VALID,0,VALID,95.6281,VALID,0,VALID,19.4868,VALID,135,VALID,1.15898,
2012-05-25, 03:35:05,VALID,915.432,VALID,0,VALID,95.5748,VALID,0,VALID,19.5078,VALID,152,VALID,1.08438,
2012-05-25, 03:36:05,VALID,915.436,VALID,0,VALID,95.4833,VALID,0,VALID,19.5258,VALID,144,VALID,1.01953,
2012-05-25, 03:37:05,VALID,915.423,VALID,0,VALID,95.4223,VALID,0,VALID,19.5258,VALID,144,VALID,0.947656,
2012-05-25, 03:38:05,VALID,915.424,VALID,0,VALID,95.2927,VALID,0,VALID,19.5468,VALID,144,VALID,1.14258,
2012-05-25, 03:39:05,VALID,915.396,VALID,0,VALID,95.1174,VALID,0,VALID,19.5858,VALID,144,VALID,1.0332,
2012-05-25, 03:40:05,VALID,915.365,VALID,0,VALID,94.9344,VALID,0,VALID,19.6053,VALID,144,VALID,1.5418,
2012-05-25, 03:41:05,VALID,915.365,VALID,0,VALID,94.7286,VALID,0,VALID,19.6023,VALID,144,VALID,1.18711,
2012-05-25, 03:42:05,VALID,915.371,VALID,0,VALID,94.4999,VALID,0.107441,VALID,19.6233,VALID,144,VALID,0.874219,
2012-05-25, 03:43:05,VALID,915.368,VALID,0,VALID,94.355,VALID,0,VALID,19.6038,VALID,122,VALID,1.14961,
2012-05-25, 03:44:05,VALID,915.337,VALID,0,VALID,94.2483,VALID,0.107441,VALID,19.6218,VALID,122,VALID,0.955078,
2012-05-25, 03:45:05,VALID,915.297,VALID,0,VALID,94.0882,VALID,0.107441,VALID,19.6428,VALID,122,VALID,1.18789,
2012-05-25, 03:46:05,VALID,915.246,VALID,0,VALID,93.9129,VALID,0,VALID,19.6428,VALID,122,VALID,0.892187,
2012-05-25, 03:47:05,VALID,915.249,VALID,0,VALID,93.7451,VALID,0.107441,VALID,19.6218,VALID,122,VALID,0.784766,
2012-05-25, 03:48:05,VALID,915.225,VALID,0,VALID,93.5622,VALID,0.107441,VALID,19.6218,VALID,122,VALID,0.698828,